Date,TemperatureHighF,TemperatureAvgF,TemperatureLowF,DewpointHighF,DewpointAvgF,DewpointLowF,HumidityHigh,HumidityAvg,HumidityLow,PressureMaxIn,PressureMinIn,WindSpeedMaxMPH,WindSpeedAvgMPH,GustSpeedMaxMPH,PrecipitationSumIn
2013-1-1,54.7,44.6,36.1,12.0,5.5,-0.7,22,20,18,29.47,29.35,0,0,0,0.00
2013-1-2,59.0,48.4,40.1,14.3,7.8,0.0,21,19,17,29.41,29.23,0,0,0,0.00
2013-1-3,59.7,50.1,43.0,14.9,9.1,4.7,20,19,17,29.41,29.26,0,0,0,0.00
2013-1-4,59.4,46.1,36.7,14.6,5.8,-1.7,21,19,17,29.53,29.41,0,0,0,0.00
2013-1-5,59.0,45.1,35.1,14.3,5.1,-2.6,21,19,17,29.56,29.38,0,0,0,0.00
2013-1-6,60.4,47.7,39.9,15.4,7.2,-0.1,21,19,17,29.38,29.12,0,0,0,0.00
2013-1-7,64.8,51.1,39.2,17.1,9.1,-0.7,21,18,15,29.21,29.09,0,0,0,0.00
2013-1-8,70.0,58.6,48.7,20.0,13.7,8.3,19,17,14,29.29,29.15,0,0,0,0.00
2013-1-9,68.4,57.9,49.3,19.0,13.3,8.8,19,17,15,29.38,29.12,0,0,0,0.00
2013-1-10,66.6,56.7,47.1,17.5,12.8,7.0,19,17,15,29.12,28.91,0,0,0,0.00
2013-1-11,58.1,47.6,39.2,13.5,7.3,-0.7,21,19,17,29.29,29.09,0,0,0,0.00
2013-1-12,52.2,43.1,36.5,10.7,3.6,-1.8,21,19,18,29.32,29.21,0,0,0,0.00
2013-1-13,50.7,40.1,31.5,10.0,1.5,-5.0,21,19,18,29.38,29.23,0,0,0,0.00
2013-1-14,44.8,37.8,31.5,6.2,-0.4,-5.0,21,19,18,29.56,29.35,0,0,0,0.00
2013-1-15,51.8,41.8,33.3,10.7,3.1,-3.5,21,19,18,29.71,29.53,0,0,0,0.00
2013-1-16,61.0,49.9,40.8,15.6,8.9,0.6,21,19,16,29.62,29.44,0,0,0,0.00
2013-1-17,66.6,52.3,45.3,17.5,10.2,6.4,20,18,15,29.50,29.35,0,0,0,0.00
2013-1-18,67.1,55.0,44.1,17.9,11.6,5.6,20,18,15,29.47,29.32,0,0,0,0.00
2013-1-19,68.9,53.0,43.2,19.4,10.6,4.8,20,18,15,29.47,29.32,0,0,0,0.00
2013-1-20,70.0,54.9,41.9,20.0,11.6,4.5,21,18,14,29.41,29.23,0,0,0,0.00
2013-1-21,71.8,57.5,43.9,20.1,13.0,5.4,20,17,14,29.35,29.23,0,0,0,0.00
2013-1-22,73.0,56.8,44.1,21.1,12.5,5.6,20,17,14,29.38,29.26,0,0,0,0.00
2013-1-23,68.0,57.9,48.7,18.7,13.3,8.3,19,17,15,29.38,29.23,0,0,0,0.00
2013-1-24,69.6,61.0,56.8,24.6,16.7,12.5,26,18,15,29.38,29.26,0,0,0,0.00
2013-1-25,69.4,62.1,57.0,41.2,21.3,14.5,51,22,15,29.38,29.18,0,0,0,0.00
2013-1-26,63.1,58.7,55.8,52.0,44.9,36.7,80,62,38,29.18,29.03,0,0,0,0.00
2013-1-27,69.8,62.3,55.0,41.6,27.4,11.3,51,30,14,29.12,29.03,0,0,0,0.00
2013-1-28,59.4,52.5,46.2,14.6,10.4,6.4,20,18,17,29.23,29.06,0,0,0,0.00
2013-1-29,63.1,49.8,39.7,16.2,8.7,-0.3,21,19,16,29.38,29.23,0,0,0,0.00
2013-1-30,64.8,51.5,42.1,17.1,12.4,6.5,30,21,15,29.56,29.38,0,0,0,0.00
2013-1-31,69.8,54.8,44.1,20.0,13.7,6.4,31,20,14,29.44,29.29,0,0,0,0.00
2013-2-1,70.5,56.4,45.9,20.0,12.7,6.4,22,18,14,29.41,29.29,0,0,0,0.00
2013-2-2,69.4,56.9,47.1,19.8,13.0,7.0,22,17,15,29.47,29.32,0,0,0,0.00
2013-2-3,72.5,61.9,56.3,20.6,15.4,12.1,19,16,14,29.32,29.15,0,0,0,0.00
2013-2-4,75.9,60.7,49.3,21.6,14.6,8.8,21,16,13,29.23,29.12,0,0,0,0.00
2013-2-5,76.1,59.5,47.3,21.7,13.9,7.1,19,17,13,29.21,29.06,0,0,0,0.00
2013-2-6,75.7,62.0,52.7,21.5,15.2,10.4,18,16,13,29.18,29.03,0,0,0,0.00
2013-2-7,74.8,60.1,48.0,21.2,14.3,7.7,19,17,13,29.26,29.03,0,0,0,0.00
2013-2-8,65.8,59.0,52.3,17.1,13.8,10.1,18,17,15,29.03,28.94,0,0,0,0.00
2013-2-9,62.1,53.5,45.9,15.4,11.0,6.4,20,18,16,29.18,28.97,0,0,0,0.00
2013-2-10,64.9,52.9,42.1,17.1,10.7,4.5,21,18,15,29.21,29.09,0,0,0,0.00
2013-2-11,59.0,51.9,47.5,14.3,10.1,7.3,19,18,17,29.35,29.15,0,0,0,0.00
2013-2-12,62.6,51.1,42.1,15.8,9.6,4.5,21,18,16,29.50,29.35,0,0,0,0.00
2013-2-13,68.9,55.6,43.5,19.4,12.0,5.1,20,18,15,29.41,29.26,0,0,0,0.00
2013-2-14,73.9,58.9,45.3,21.2,13.6,6.4,20,17,13,29.35,29.23,0,0,0,0.00
2013-2-15,74.1,62.6,53.2,21.2,15.5,10.9,18,16,13,29.47,29.35,0,0,0,0.00
2013-2-16,77.2,60.9,47.1,22.6,14.6,7.0,19,16,13,29.44,29.15,0,0,0,0.00
2013-2-17,79.9,60.0,46.0,23.7,14.1,6.4,20,17,12,29.15,28.97,0,0,0,0.00
2013-2-18,74.8,59.4,46.4,21.2,13.8,6.4,19,17,13,29.21,29.03,0,0,0,0.00
2013-2-19,70.5,58.1,47.3,20.0,13.4,7.1,19,17,14,29.03,28.79,0,0,0,0.00
2013-2-20,57.6,51.2,41.9,24.6,12.5,8.2,49,22,17,29.09,28.79,0,0,0,0.00
2013-2-21,58.6,50.2,41.7,17.7,11.1,6.0,34,21,17,29.23,29.09,0,0,0,0.00
2013-2-22,66.0,51.4,39.9,17.1,11.7,6.8,31,21,15,29.35,29.23,0,0,0,0.00
2013-2-23,74.3,56.7,41.9,21.1,12.4,4.5,21,17,13,29.32,28.94,0,0,0,0.00
2013-2-24,62.4,54.8,48.0,15.7,11.7,7.7,19,18,16,29.32,29.12,0,0,0,0.00
2013-2-25,67.6,54.7,45.9,18.4,11.5,6.4,20,18,15,29.44,29.18,0,0,0,0.00
2013-2-26,68.0,54.5,41.2,18.7,11.2,0.9,21,18,15,29.32,29.18,0,0,0,0.00
2013-2-27,66.4,55.9,47.1,17.4,12.2,7.0,19,17,15,29.47,29.32,0,0,0,0.00
2013-2-28,74.5,60.3,48.7,21.2,14.4,8.3,19,17,13,29.56,29.41,0,0,0,0.00
2013-3-1,81.9,64.2,48.4,28.6,16.7,8.0,19,16,12,29.56,29.35,0,0,0,0.00
2013-3-2,85.5,63.8,51.4,29.8,16.6,9.7,19,16,12,29.44,29.26,0,0,0,0.00
2013-3-27,90.9,80.2,73.0,31.6,25.0,19.6,15,13,12,31.01,31.01,0,0,0,0.00
2013-3-28,92.3,76.8,62.6,32.4,23.4,15.8,16,14,12,31.01,27.73,0,0,0,0.00
2013-3-29,93.4,76.2,62.2,33.0,23.2,15.5,16,14,11,0.00,40.00,0,0,0,0.00
2013-3-30,94.6,80.4,68.9,33.0,25.2,18.5,15,13,11,0.00,40.00,0,0,0,0.00
2013-3-31,90.5,76.1,64.4,32.2,23.1,15.8,15,14,12,0.00,40.00,0,0,0,0.00
2013-4-1,87.3,73.3,62.8,30.5,21.5,15.8,16,14,12,0.00,40.00,0,0,0,0.00
2013-4-2,87.6,72.2,59.9,30.8,21.1,14.5,17,15,12,0.00,40.00,0,0,0,0.00
2013-4-3,92.1,76.2,61.9,32.3,23.1,15.2,16,14,12,0.00,40.00,0,0,0,0.00
2013-4-4,93.2,77.3,62.6,33.0,23.9,15.8,16,14,11,0.00,40.00,0,0,0,0.00
2013-4-5,93.9,78.6,66.4,33.0,24.2,17.4,15,13,11,0.00,40.00,0,0,0,0.00
2013-4-6,82.2,71.3,64.8,28.6,20.0,16.1,15,14,13,0.00,40.00,0,0,0,0.00
2013-4-8,76.1,69.9,61.3,21.7,18.9,14.8,16,14,13,0.00,40.00,0,0,0,0.00
2013-4-9,78.1,68.6,59.4,23.3,18.5,14.4,17,15,13,0.00,40.00,0,0,0,0.00
2013-4-10,81.0,69.5,56.3,28.6,19.6,12.1,17,15,12,0.00,40.00,0,0,0,0.00
2013-4-11,92.7,75.1,56.1,32.7,22.6,11.9,17,14,12,0.00,40.00,0,0,0,0.00
2013-4-12,94.5,78.3,63.1,33.0,24.1,15.9,16,13,11,0.00,40.00,0,0,0,0.00
2013-4-13,97.2,82.7,64.4,34.0,26.8,15.8,15,13,11,0.00,40.00,0,0,0,0.00
2013-4-14,95.5,81.7,70.3,33.0,25.9,18.9,15,13,11,0.00,40.00,0,0,0,0.00
2013-4-15,88.3,76.3,66.6,31.3,23.2,17.5,15,14,12,0.00,40.00,0,0,0,0.00
2013-4-16,76.8,67.8,60.8,22.3,18.0,14.4,16,15,13,0.00,40.00,0,0,0,0.00
2013-4-17,74.5,65.9,58.3,21.2,17.3,13.7,17,15,13,0.00,40.00,0,0,0,0.00
2013-4-18,75.4,65.6,55.6,21.2,17.0,11.5,17,15,13,0.00,40.00,0,0,0,0.00
2013-4-19,86.7,70.7,54.7,30.0,20.3,11.3,18,15,12,0.00,40.00,0,0,0,0.00
2013-4-20,92.1,76.9,57.9,32.3,23.7,13.4,17,14,12,0.00,40.00,0,0,0,0.00
2013-4-21,102.0,80.5,62.1,35.3,25.2,15.4,16,13,10,0.00,40.00,0,0,0,0.00
2013-4-22,102.6,84.5,67.6,35.3,27.2,18.4,15,13,9,0.00,40.00,0,0,0,0.00
2013-4-23,80.4,74.4,70.2,28.6,21.5,18.8,15,14,12,0.00,40.00,0,0,0,0.00
2013-5-13,115.9,100.3,86.2,36.6,33.6,29.6,13,10,7,17.72,17.72,8,2,9,0.00
2013-5-14,106.3,93.8,80.4,35.8,31.9,27.0,15,11,9,17.72,17.72,12,4,13,0.00
2013-5-15,102.4,89.6,76.1,35.0,30.5,21.7,15,12,9,17.72,17.72,11,3,12,0.00
2013-5-16,98.1,87.4,77.2,34.7,29.4,22.0,15,13,11,17.72,17.72,13,5,13,0.00
2013-5-17,92.5,81.7,74.3,32.5,26.4,20.3,15,13,12,17.72,17.72,13,5,15,0.00
2013-5-18,99.0,82.8,69.1,34.9,26.6,18.5,15,13,10,17.72,17.72,9,2,9,0.00
2013-5-19,105.4,86.6,71.1,35.3,28.3,19.5,15,12,9,17.72,17.72,6,1,7,0.00
2013-5-20,91.4,82.5,72.0,32.2,27.0,19.6,15,13,12,17.72,17.72,6,1,8,0.00
2013-5-21,105.8,88.6,68.7,35.3,29.1,18.5,15,12,9,17.72,17.72,12,2,12,0.00
2013-5-22,89.2,81.4,77.4,32.0,26.9,22.0,15,14,12,17.72,17.72,11,5,11,0.00
2013-6-8,107.8,98.6,89.8,36.6,33.5,30.5,12,10,8,17.72,17.72,12,4,12,0.00
2013-6-9,91.8,86.9,83.7,32.2,30.0,28.1,14,13,12,17.72,17.72,11,5,11,0.00
2013-6-10,106.5,100.1,87.1,36.0,33.7,30.3,13,10,9,17.72,17.72,17,6,17,0.00
2013-6-11,110.3,94.2,76.8,36.2,31.3,22.0,15,11,8,17.72,17.72,6,1,7,0.00
2013-6-12,90.1,89.4,88.2,32.2,31.2,30.3,13,13,12,17.72,17.72,5,2,5,0.00
2013-6-17,112.5,99.8,87.6,36.6,33.6,30.3,13,10,7,17.72,17.72,12,2,12,0.00
2013-6-18,105.6,94.4,83.7,35.3,32.0,28.1,14,11,9,17.72,17.72,14,5,14,0.00
2013-6-19,107.2,93.3,79.9,36.4,31.8,27.0,15,12,9,17.72,17.72,11,2,13,0.00
2013-6-20,100.6,89.9,79.0,34.9,30.6,22.1,15,12,10,17.72,17.72,13,4,15,0.00
2013-6-21,100.9,91.0,81.5,34.9,31.3,27.8,14,12,10,17.72,17.72,17,4,17,0.00
2013-6-22,86.7,83.3,81.0,30.0,28.5,27.3,14,14,13,17.72,17.72,9,4,10,0.00
2013-6-27,109.9,101.1,94.3,36.6,33.8,31.8,11,10,8,17.72,17.72,6,1,6,0.00
2013-6-28,120.9,104.2,85.5,42.6,33.6,29.1,13,9,5,17.72,17.72,6,0,6,0.00
2013-6-29,122.2,107.8,91.9,44.4,35.6,31.0,12,9,6,17.72,17.72,9,2,9,0.00
2013-6-30,118.8,104.5,91.8,36.8,34.1,31.0,12,9,6,17.72,17.72,13,5,13,0.00
2013-7-1,116.1,102.6,91.2,36.6,33.9,31.0,12,9,7,17.72,17.72,18,4,18,0.00
2013-7-2,110.7,101.5,92.7,36.6,34.0,31.0,12,10,8,17.72,17.72,15,5,15,0.00
2013-7-3,116.1,103.2,92.3,36.6,34.0,31.0,12,9,7,17.72,17.72,13,5,13,0.00
2013-7-4,109.9,99.9,92.3,36.6,33.7,31.0,12,10,8,17.72,17.72,17,6,17,0.00
2013-7-5,97.2,91.9,88.9,34.0,31.6,30.3,13,12,11,17.72,17.72,11,6,11,0.00
2013-7-21,85.1,82.3,80.8,48.0,45.8,40.2,31,28,21,17.72,17.72,0,0,0,0.00
2013-7-22,104.9,88.6,77.9,56.2,41.2,30.3,47,23,9,17.72,17.72,9,2,10,0.00
2013-7-23,108.0,94.9,84.0,36.6,32.2,28.1,14,11,8,17.72,17.72,10,4,11,0.00
2013-7-24,119.8,100.2,86.7,36.8,33.4,30.0,13,10,6,17.72,17.72,10,3,10,0.00
2013-7-25,115.2,97.1,89.8,36.5,33.0,30.5,12,11,7,17.72,17.72,13,5,14,0.00
2013-7-26,100.0,92.1,83.5,45.5,32.8,29.8,26,12,10,17.72,17.72,19,3,19,0.00
2013-7-27,111.6,96.9,87.4,36.6,33.1,30.3,13,11,7,17.72,17.72,9,2,10,0.00
2013-7-28,117.5,97.3,86.2,36.7,32.8,29.6,13,11,6,17.72,17.72,10,1,11,0.00
2013-7-29,93.0,87.1,84.9,33.0,30.1,28.6,13,13,12,17.72,17.72,9,3,9,0.00
2013-8-4,111.7,101.9,92.1,36.6,34.1,31.0,12,10,7,17.72,17.72,13,4,13,0.00
2013-8-5,107.2,96.3,87.8,36.5,32.8,30.3,13,11,9,17.72,17.72,12,5,12,0.00
2013-8-6,102.4,93.1,85.6,35.1,32.1,29.2,13,12,10,17.72,17.72,15,5,15,0.00
2013-8-7,107.1,93.3,82.8,36.4,31.8,28.1,14,12,9,17.72,17.72,13,4,13,0.00
2013-8-8,116.2,94.5,77.4,36.7,31.8,22.0,15,11,7,17.72,17.72,10,2,10,0.00
2013-8-9,111.0,94.9,80.4,36.6,32.2,27.0,15,11,8,17.72,17.72,13,3,13,0.00
2013-8-10,105.6,93.9,83.3,35.3,31.9,28.1,14,11,9,17.72,17.72,15,5,15,0.00
2013-8-11,107.1,93.1,81.3,36.4,31.8,27.6,14,12,9,17.72,17.72,11,3,11,0.00
2013-8-12,117.1,94.8,76.3,36.6,31.5,21.9,15,11,6,17.72,17.72,10,1,10,0.00
2013-8-13,112.6,95.4,85.1,36.6,32.5,28.8,13,11,7,17.72,17.72,11,3,12,0.00
2013-8-14,88.0,86.5,85.3,31.0,29.9,28.9,13,13,13,17.72,17.72,4,0,4,0.00
2013-8-15,115.9,106.6,96.4,36.6,34.7,32.7,11,9,7,17.72,17.72,12,2,12,0.00
2013-8-16,121.5,102.8,90.9,36.8,33.8,31.0,12,9,5,17.72,17.72,10,2,10,0.00
2013-8-17,119.3,102.0,92.7,36.8,33.7,31.0,12,10,6,17.72,17.72,20,5,20,0.00
2013-8-18,114.4,99.3,84.9,43.0,33.2,30.3,23,10,7,17.72,17.72,13,3,13,0.00
2013-8-19,105.6,92.1,77.9,55.7,37.8,31.0,44,18,9,17.72,17.72,10,1,10,0.00
2013-8-20,118.9,100.3,86.2,36.8,33.3,29.6,13,10,6,17.72,17.72,8,1,10,0.00
2013-8-21,112.8,99.2,88.7,36.6,33.5,30.3,13,10,7,17.72,17.72,11,5,11,0.00
2013-8-22,109.2,98.1,85.6,36.6,33.3,29.2,13,10,8,17.72,17.72,17,4,17,0.00
2013-8-23,106.7,90.6,75.2,51.8,35.6,28.1,42,16,9,17.72,17.72,15,1,15,0.00
2013-8-24,95.0,86.6,70.3,65.5,33.2,28.1,84,17,11,17.72,17.72,20,6,20,0.00
2013-8-25,83.1,78.9,71.1,71.7,46.0,27.8,98,38,14,17.72,17.72,13,4,13,0.00
2013-8-26,92.3,79.0,69.4,71.2,55.7,39.0,98,57,17,17.72,17.72,11,1,11,0.00
2013-8-27,107.4,91.2,74.8,54.8,41.5,31.1,49,21,9,17.72,17.72,8,0,9,0.00
2013-8-28,115.3,96.5,81.7,47.1,38.1,31.5,29,15,7,17.72,17.72,14,1,14,0.00
2013-8-29,105.6,89.6,71.4,72.5,46.2,37.7,93,28,12,17.72,17.72,26,4,26,0.00
2013-8-30,105.6,87.6,76.5,68.4,49.1,37.3,74,31,12,17.72,17.72,9,2,9,0.00
2013-8-31,105.3,90.1,83.7,53.9,42.6,36.7,33,20,12,17.72,17.72,9,2,9,0.00
2013-9-1,108.1,89.1,74.5,71.4,46.4,31.0,87,30,8,17.72,17.72,17,1,17,0.00
2013-9-2,113.2,93.9,76.6,53.6,38.1,30.5,44,16,7,17.72,17.72,13,2,14,0.00
2013-9-3,112.5,92.7,78.3,52.1,40.1,30.6,39,19,7,17.72,17.72,7,0,7,0.00
2013-9-4,107.8,93.8,84.9,41.8,34.2,29.8,18,13,8,17.72,17.72,17,1,17,0.00
2013-9-5,115.5,95.8,80.2,41.5,35.6,30.5,24,13,7,17.72,17.72,6,1,8,0.00
2013-9-6,107.2,93.0,72.7,64.8,35.3,28.1,73,15,9,17.72,17.72,15,2,15,0.00
2013-9-7,92.3,83.2,72.9,56.5,45.4,34.5,51,28,14,17.72,17.72,8,1,8,0.00
2013-9-8,97.9,85.8,72.5,64.0,43.0,31.0,73,25,11,17.72,17.72,6,1,6,0.00
2013-9-9,100.4,82.7,72.1,64.8,47.3,31.1,73,34,10,17.72,17.72,14,2,15,0.00
2013-9-10,84.6,75.5,67.8,70.0,50.9,38.1,91,46,20,17.72,17.72,9,0,10,0.00
2013-9-11,96.8,81.0,75.4,43.1,37.7,31.1,31,22,11,17.72,17.72,10,4,10,0.00
2013-9-14,108.0,98.3,87.4,36.5,33.4,30.3,13,11,8,17.72,17.72,6,0,6,0.00
2013-9-15,110.5,94.5,80.1,36.6,31.9,27.0,15,11,8,17.72,17.72,6,0,6,0.00
2013-9-16,111.2,95.5,81.5,36.6,32.4,27.8,14,11,7,17.72,17.72,13,2,13,0.00
2013-9-17,107.6,95.1,84.0,36.4,32.6,28.1,14,11,8,17.72,17.72,21,4,21,0.00
2013-9-18,104.2,89.2,77.5,35.3,30.4,22.0,15,12,9,17.72,17.72,10,2,10,0.00
2013-9-19,104.4,88.0,72.9,35.3,28.6,19.6,15,12,9,17.72,17.72,5,0,5,0.00
2013-9-20,104.0,89.0,72.5,35.3,29.2,19.6,15,12,9,17.72,17.72,11,2,12,0.00
2013-9-21,100.8,89.1,79.3,34.9,30.7,27.0,15,12,10,17.72,17.72,15,5,15,0.00
2013-9-22,90.7,78.9,68.7,31.9,24.8,18.5,15,14,12,17.72,17.72,8,1,8,0.00
2013-9-23,97.9,81.2,65.1,34.4,25.7,16.4,15,13,11,17.72,17.72,6,0,6,0.00
2013-9-24,99.0,83.6,68.2,34.9,27.3,18.5,15,13,10,17.72,17.72,10,2,10,0.00
2013-9-25,93.7,83.6,74.7,33.0,27.4,20.6,15,13,11,17.72,17.72,16,7,16,0.00
2013-9-26,87.1,74.8,65.3,30.2,22.3,16.4,15,14,12,17.72,17.72,13,2,13,0.00
2013-9-27,82.8,71.7,61.2,28.8,20.7,14.6,16,15,12,17.72,17.72,6,1,6,0.00
2013-9-28,92.8,74.4,59.4,32.8,22.3,14.4,17,14,12,17.72,17.72,4,0,4,0.00
2013-9-29,96.3,78.3,62.6,33.3,24.2,15.8,16,14,11,17.72,17.72,8,1,8,0.00
2013-9-30,97.9,82.4,68.4,34.5,26.4,18.5,15,13,11,17.72,17.72,9,2,9,0.00
2013-10-1,89.2,78.4,74.1,31.6,23.7,20.2,15,13,12,17.72,17.72,10,4,10,0.00
2013-10-9,68.4,65.2,61.3,19.0,17.2,15.2,19,16,15,17.72,17.72,13,5,13,0.00
2013-10-10,75.6,64.8,55.9,34.7,21.8,14.9,41,20,13,17.72,17.72,10,2,10,0.00
2013-10-11,81.5,68.5,54.5,28.6,20.2,11.3,20,16,13,17.72,17.72,6,0,6,0.00
2013-10-12,87.6,71.4,57.6,30.8,21.0,13.1,17,15,12,17.72,17.72,6,1,6,0.00
2013-10-13,84.0,74.0,66.4,29.8,22.3,17.4,15,14,12,17.72,17.72,15,4,15,0.00
2013-10-14,81.9,71.2,60.4,28.6,20.5,14.4,17,15,12,17.72,17.72,6,0,6,0.00
2013-10-15,81.7,69.0,55.2,28.6,19.2,11.3,18,15,12,17.72,17.72,5,1,7,0.00
2013-10-16,80.8,69.1,58.5,28.6,19.3,13.8,17,15,12,17.72,17.72,6,0,6,0.00
2013-10-17,85.8,68.6,54.3,29.8,19.3,11.3,18,15,12,17.72,17.72,4,0,4,0.00
2013-10-18,86.9,71.1,54.9,30.0,20.5,11.3,18,15,12,17.72,17.72,6,0,6,0.00
2013-10-19,89.6,72.9,57.2,32.2,21.6,12.8,17,15,12,17.72,17.72,5,0,5,0.00
2013-10-20,91.0,74.1,58.8,32.2,22.0,14.1,17,14,12,17.72,17.72,5,0,5,0.00
2013-10-21,91.2,74.5,57.7,32.2,22.2,13.2,17,14,12,17.72,17.72,4,0,4,0.00
2013-10-22,91.8,75.0,60.8,32.2,22.4,14.4,16,14,12,17.72,17.72,5,0,5,0.00
2013-10-23,90.0,75.7,62.6,32.2,22.9,15.8,16,14,12,17.72,17.72,4,0,4,0.00
2013-10-24,93.2,76.5,61.5,32.8,23.2,14.9,16,14,12,17.72,17.72,5,0,5,0.00
2013-10-25,90.3,75.3,59.4,32.2,22.8,14.4,17,14,12,17.72,17.72,4,0,4,0.00
2013-10-26,92.3,76.9,62.6,32.4,23.7,15.8,16,14,12,17.72,17.72,5,0,5,0.00
2013-10-27,92.3,77.4,63.1,32.4,24.0,15.8,16,14,12,17.72,17.72,10,2,11,0.00
2013-10-28,78.6,69.5,60.1,27.1,19.8,14.4,17,15,13,17.72,17.72,16,6,18,0.00
2013-10-29,72.7,62.1,53.6,20.8,15.3,11.1,18,16,14,17.72,17.72,8,1,8,0.00
2013-10-30,73.2,61.9,50.9,21.2,15.6,10.4,23,16,14,17.72,17.72,5,0,5,0.00
2013-10-31,76.5,63.5,49.5,22.0,15.9,8.9,19,16,13,17.72,17.72,5,0,6,0.00
2013-11-1,81.9,66.4,52.7,28.6,18.0,10.4,18,16,12,17.72,17.72,5,0,5,0.00
2013-11-2,86.0,68.9,55.0,29.8,19.5,11.3,18,15,12,17.72,17.72,6,0,6,0.00
2013-11-3,83.1,70.8,62.1,29.0,20.1,15.4,16,15,12,17.72,17.72,10,3,10,0.00
2013-11-4,78.6,65.4,56.3,23.6,17.0,12.1,17,15,13,17.72,17.72,6,0,6,0.00
2013-11-5,69.1,60.2,52.2,19.5,14.5,10.0,18,17,15,17.72,17.72,6,1,6,0.00
2013-11-6,75.2,59.5,44.1,21.2,13.9,5.6,20,17,13,17.72,17.72,4,0,4,0.00
2013-11-7,81.5,64.5,49.8,28.6,16.6,9.2,19,16,12,17.72,17.72,4,0,4,0.00
2013-11-8,84.0,67.0,52.9,29.8,18.2,10.6,18,15,12,17.72,17.72,4,0,4,0.00
2013-11-9,86.4,69.4,53.8,29.8,19.7,11.3,18,15,12,17.72,17.72,5,0,5,0.00
2013-11-10,85.5,68.1,56.5,29.8,18.9,12.2,17,15,12,17.72,17.72,4,0,4,0.00
2013-11-11,86.5,69.3,55.0,29.8,19.5,11.3,18,15,13,17.72,17.72,4,0,4,0.00
2013-11-12,86.9,71.4,57.2,30.0,20.6,12.8,17,15,12,17.72,17.72,4,0,4,0.00
2013-11-13,89.4,73.8,61.9,32.2,22.0,15.2,16,14,12,17.72,17.72,4,0,4,0.00
2013-11-14,85.8,73.9,61.2,29.8,22.1,14.6,16,14,12,17.72,17.72,6,1,6,0.00
2013-11-15,82.8,71.8,63.5,28.8,20.7,15.8,16,14,13,17.72,17.72,14,5,14,0.00
2013-11-16,71.4,63.6,57.9,31.8,20.8,14.4,36,20,15,17.72,17.72,14,6,14,0.00
2013-11-17,73.0,63.4,56.5,26.3,20.7,15.6,26,19,16,17.72,17.72,8,3,9,0.00
2013-11-18,77.9,64.0,52.0,26.6,23.0,19.1,35,22,15,17.72,17.72,4,0,4,0.00
2013-11-19,75.4,64.6,55.0,28.3,23.5,18.5,35,22,15,17.72,17.72,8,1,8,0.00
2013-11-20,75.0,64.8,57.2,33.7,22.3,15.8,35,20,14,17.72,17.72,8,2,8,0.00
2013-11-21,67.3,62.4,53.6,51.7,28.5,19.1,91,30,18,17.72,17.72,13,5,13,0.00
2013-11-22,54.9,50.6,47.7,53.0,42.9,27.3,94,77,37,17.72,17.72,4,0,4,0.00
2013-11-23,56.5,51.0,47.3,50.2,40.6,26.9,96,73,34,17.72,17.72,4,0,4,0.00
2013-11-24,64.8,54.4,49.1,55.2,35.1,17.7,98,57,18,17.72,17.72,4,0,4,0.00
2013-11-25,67.1,55.4,44.8,36.9,24.1,12.1,62,34,15,17.72,17.72,5,0,5,0.00
2013-11-26,70.9,57.3,47.1,24.6,20.0,14.1,39,25,14,17.72,17.72,4,0,4,0.00
2013-11-27,70.5,57.9,48.7,29.5,21.3,14.3,46,26,14,17.72,17.72,4,0,4,0.00
2013-11-28,71.6,57.8,46.2,26.8,19.8,14.0,42,24,14,17.72,17.72,4,0,4,0.00
2013-11-29,71.2,58.2,45.9,27.0,20.2,13.1,42,25,14,17.72,17.72,4,0,4,0.00
2013-11-30,71.8,58.4,47.8,26.2,20.6,13.1,40,25,14,17.72,17.72,4,0,4,0.00
2013-12-1,70.3,58.4,48.7,26.1,19.6,11.8,37,23,14,17.72,17.72,6,0,6,0.00
2013-12-2,70.9,58.1,46.2,23.6,18.3,14.0,38,22,14,17.72,17.72,10,1,11,0.00
2013-12-3,70.9,63.8,58.1,20.0,16.4,13.5,19,16,14,17.72,17.72,14,6,15,0.00
2013-12-4,60.4,50.9,39.6,26.3,14.4,2.9,44,24,17,17.72,17.72,10,2,10,0.00
2013-12-5,52.5,42.2,34.5,10.7,4.0,-2.6,22,20,18,17.72,17.72,6,0,6,0.00
2013-12-6,56.7,43.4,32.0,12.5,4.5,-4.4,23,20,17,28.88,17.72,6,1,8,0.00
2013-12-7,57.0,50.3,42.4,19.1,9.8,4.5,25,19,17,28.76,28.53,14,5,15,0.00
2013-12-8,53.4,44.3,37.9,11.0,5.3,-0.7,21,20,18,28.85,28.64,4,0,4,0.00
2013-12-9,48.7,39.7,33.3,8.3,1.2,-3.5,21,19,18,29.09,28.85,6,1,6,0.00
2013-12-10,55.6,41.2,30.2,12.5,2.4,-6.0,21,19,17,29.09,28.85,7,0,7,0.00
2013-12-11,59.7,45.9,32.9,14.9,5.7,-3.8,21,19,17,28.94,28.85,4,0,4,0.00
2013-12-12,59.7,48.6,41.7,14.9,8.2,4.5,24,19,17,28.88,28.76,4,0,4,0.00
2013-12-13,63.7,51.4,39.6,16.7,10.6,4.5,29,19,16,28.91,28.76,4,0,4,0.00
2013-12-14,65.7,54.2,44.8,17.1,11.3,6.2,20,18,15,29.03,28.88,5,1,5,0.00
2013-12-15,68.0,53.9,41.4,18.5,11.1,4.4,21,18,15,29.03,28.88,4,0,4,0.00
2013-12-16,73.0,58.4,45.7,20.9,13.4,6.4,20,17,14,28.94,28.82,4,0,4,0.00
2013-12-17,73.9,59.5,48.7,21.2,14.0,8.3,19,17,13,28.91,28.76,5,0,5,0.00
2013-12-18,70.3,58.6,50.0,20.0,13.7,9.4,19,17,14,28.76,28.44,10,1,10,0.00
2013-12-19,64.6,58.4,50.2,18.5,14.2,11.3,27,17,15,28.44,28.35,13,5,13,0.00
2013-12-20,63.7,54.1,43.9,23.2,16.5,8.6,41,24,16,28.53,28.35,6,1,6,0.00
2013-12-21,65.1,53.8,43.0,17.1,11.1,4.7,20,18,15,28.70,28.50,4,0,5,0.00
2013-12-22,65.3,53.8,41.7,17.1,11.1,4.5,23,18,15,28.97,28.70,5,0,5,0.00
2013-12-23,68.0,54.9,42.6,18.7,11.7,4.5,23,18,15,29.09,28.94,5,0,5,0.00
2013-12-24,70.3,57.2,45.0,20.0,13.3,6.4,25,18,14,28.94,28.79,5,0,5,0.00
2013-12-25,70.0,56.4,45.5,20.0,12.5,6.4,20,17,14,29.00,28.88,4,0,4,0.00
2013-12-26,69.4,55.1,43.0,19.8,11.8,4.7,20,18,15,28.97,28.82,4,0,4,0.00
2013-12-27,71.4,57.3,44.8,20.0,12.8,6.2,20,17,14,28.91,28.76,4,0,4,0.00
2013-12-28,65.7,54.1,46.8,17.1,11.3,6.7,19,18,15,28.79,28.61,4,0,4,0.00
2013-12-29,64.4,55.1,44.1,17.1,11.9,5.6,20,18,15,28.88,28.67,6,2,6,0.00
2013-12-30,67.3,53.4,41.2,18.1,10.8,4.2,21,18,15,28.97,28.85,4,0,4,0.00
2013-12-31,67.8,52.8,40.3,18.5,10.4,0.2,21,18,15,28.91,28.79,4,0,4,0.00
2014-1-1,71.4,55.1,41.0,20.0,11.7,0.8,21,18,14,28.88,28.73,6,0,6,0.00
2014-1-2,72.5,58.2,45.9,20.6,13.4,6.4,20,17,14,28.88,28.73,4,0,4,0.00